FW0743 Weather Reports


time (UTC)temp
C
wind
direction
speed
KPH
gust
KPH
rain 1hr
cm
rain 24hr
cm
rain mn
cm
humidity
%
barometer
mb
20260509030032 1 311 1.6 3.2 0.00 0.03 0.03 84 1012.1
20260509024504 1 311 0.0 1.6 0.00 0.03 0.03 84 1012.2
20260509023017 1 311 0.0 3.2 0.00 0.03 0.03 83 1012.2
20260509021518 1 311 1.6 3.2 0.00 0.03 0.03 80 1012.3
20260509020021 2 311 0.0 1.6 0.00 0.03 0.03 79 1012.3
20260509014527 2 311 0.0 3.2 0.00 0.03 0.03 78 1012.1
20260509013016 3 311 0.0 1.6 0.00 0.03 0.03 74 1011.9
20260509011514 3 311 0.0 0.0 0.00 0.03 0.03 75 1011.8
20260509010023 4 311 0.0 1.6 0.00 0.03 0.03 71 1011.6
20260509004533 5 311 0.0 0.0 0.00 0.03 0.03 64 1011.5
20260509003024 6 311 0.0 0.0 0.00 0.03 0.03 62 1011.4
20260509001512 7 311 0.0 1.6 0.00 0.03 0.03 50 1011.3
20260509000016 8 311 0.0 1.6 0.00 0.03 0.03 48 1011.2
20260508234517 9 311 0.0 1.6 0.00 0.03 0.03 43 1011.2
20260508233023 10 310 1.6 6.4 0.00 0.03 0.03 40 1011.1
20260508231530 11 321 0.0 9.7 0.00 0.03 0.03 39 1011.0
20260508230013 11 264 0.0 4.8 0.00 0.03 0.03 35 1011.1
20260508224519 11 321 4.8 11.3 0.00 0.03 0.03 35 1011.1
20260508223033 11 343 8.0 16.1 0.00 0.03 0.03 36 1011.2
20260508221531 11 32 3.2 14.5 0.00 0.03 0.03 40 1011.3
20260508220021 11 278 9.7 16.1 0.00 0.03 0.03 40 1011.3
20260508214516 10 286 4.8 19.3 0.00 0.03 0.03 42 1011.4
20260508213029 11 242 4.8 14.5 0.00 0.03 0.03 42 1011.2
20260508211529 11 350 4.8 19.3 0.00 0.03 0.03 40 1011.3
20260508210032 11 325 6.4 16.1 0.00 0.03 0.03 43 1011.4
20260508204512 10 242 12.9 19.3 0.00 0.03 0.03 42 1011.5
20260508203020 10 299 6.4 19.3 0.00 0.03 0.03 45 1011.7
20260508201522 9 355 1.6 14.5 0.00 0.03 0.03 52 1011.7
20260508200031 9 257 3.2 16.1 0.00 0.03 0.03 52 1011.9
20260508194527 10 13 11.3 24.1 0.00 0.03 0.03 54 1012.0
20260508193014 10 249 3.2 19.3 0.00 0.03 0.03 53 1011.9
20260508191525 9 309 8.0 25.7 0.00 0.03 0.03 58 1012.0
20260508190033 9 319 8.0 19.3 0.00 0.03 0.03 58 1011.9
20260508184527 8 311 8.0 17.7 0.00 0.03 0.03 55 1012.0
20260508183015 9 252 8.0 22.5 0.00 0.03 0.03 50 1012.0
20260508181541 8 296 6.4 14.5 0.00 0.03 0.03 59 1012.1
20260508180005 8 355 6.4 16.1 0.00 0.03 0.03 57 1012.3
20260508174514 8 329 4.8 16.1 0.00 0.03 0.03 55 1012.4
20260508173012 8 335 4.8 20.9 0.00 0.03 0.03 58 1012.5
20260508171517 7 321 8.0 19.3 0.00 0.03 0.03 58 1012.6
20260508170024 8 74 1.6 16.1 0.00 0.03 0.03 65 1012.4
20260508164505 7 286 4.8 12.9 0.00 0.03 0.03 68 1012.4
20260508163008 8 336 12.9 24.1 0.00 0.03 0.03 55 1012.6
20260508161511 8 289 3.2 14.5 0.00 0.03 0.03 60 1012.6
20260508160033 7 296 3.2 17.7 0.00 0.03 0.03 62 1012.8
20260508154524 7 24 4.8 19.3 0.00 0.03 0.03 63 1012.7
20260508153006 7 300 8.0 22.5 0.00 0.03 0.03 64 1012.6
20260508151511 7 282 6.4 17.7 0.00 0.03 0.03 62 1012.8
20260508150015 6 228 8.0 16.1 0.00 0.03 0.03 65 1012.8
20260508144520 6 300 8.0 16.1 0.00 0.03 0.03 68 1013.0
20260508143026 6 254 6.4 14.5 0.00 0.03 0.03 70 1012.9
20260508141510 5 266 4.8 14.5 0.00 0.03 0.03 67 1012.8
20260508140012 5 294 1.6 8.0 0.00 0.03 0.03 68 1012.9
20260508134517 5 261 9.7 16.1 0.00 0.03 0.03 71 1012.9
20260508133021 5 269 1.6 12.9 0.00 0.03 0.03 78 1012.7
20260508131524 5 295 3.2 9.7 0.00 0.03 0.03 80 1012.7
20260508130012 5 297 4.8 11.3 0.00 0.03 0.03 82 1012.4
20260508124517 5 295 4.8 8.0 0.00 0.03 0.03 86 1012.2
20260508123020 4 343 0.0 6.4 0.00 0.03 0.03 92 1012.0
20260508121523 4 319 3.2 11.3 0.00 0.03 0.03 93 1012.0
20260508120035 3 294 1.6 6.4 0.00 0.03 0.03 95 1012.1
20260508114513 3 331 0.0 4.8 0.00 0.03 0.03 96 1012.1
20260508113019 2 177 1.6 3.2 0.00 0.03 0.03 96 1012.2
20260508111522 2 273 0.0 1.6 0.00 0.03 0.03 96 1012.3
20260508110025 1 120 0.0 4.8 0.00 0.03 0.03 96 1012.3
20260508104510 1 188 0.0 3.2 0.00 0.03 0.03 96 1012.2
20260508103027 0 188 0.0 1.6 0.00 0.03 0.03 95 1012.1
20260508101533 0 188 0.0 3.2 0.00 0.03 0.03 95 1012.1
20260508100027 0 188 0.0 3.2 0.00 0.03 0.03 94 1012.0
20260508094527 0 199 0.0 3.2 0.00 0.03 0.03 94 1011.9
20260508093011 0 198 0.0 3.2 0.00 0.03 0.03 94 1011.8
20260508091516 1 250 0.0 0.0 0.00 0.03 0.03 93 1011.8
20260508090024 1 250 0.0 3.2 0.00 0.03 0.03 92 1011.8
20260508084525 1 250 0.0 3.2 0.00 0.03 0.03 92 1011.8
20260508083012 2 250 0.0 4.8 0.00 0.03 0.03 92 1011.8
20260508081514 2 271 0.0 3.2 0.00 0.03 0.03 91 1011.8
20260508080020 2 279 0.0 4.8 0.00 0.03 0.03 91 1011.8
20260508074522 2 271 1.6 6.4 0.00 0.03 0.03 91 1011.7
20260508073028 2 246 1.6 4.8 0.00 0.03 0.03 91 1011.7
20260508071513 2 246 0.0 6.4 0.00 0.03 0.03 91 1011.6
20260508070015 3 296 1.6 11.3 0.00 0.03 0.03 91 1011.7
20260508064532 3 248 1.6 4.8 0.03 0.03 0.03 89 1011.7
20260508063025 3 252 1.6 4.8 0.03 0.03 0.03 88 1011.6
20260508061514 3 302 3.2 9.7 0.03 0.03 0.03 87 1011.7
20260508060016 3 307 1.6 16.1 0.03 0.03 0.03 86 1011.7
20260508054517 3 227 1.6 12.9 0.00 0.00 0.00 84 1011.5
20260508053024 4 286 3.2 14.5 0.00 0.00 0.00 80 1011.7
20260508051525 4 319 4.8 11.3 0.00 0.00 0.00 79 1011.4
20260508050018 4 299 4.8 14.5 0.00 0.00 0.00 76 1011.5
20260508044516 4 296 4.8 19.3 0.00 0.00 0.00 73 1011.4
20260508043021 4 303 8.0 14.5 0.00 0.00 0.00 72 1011.4
20260508041524 3 268 1.6 8.0 0.00 0.00 0.00 75 1011.1
20260508040036 3 273 1.6 6.4 0.00 0.00 0.00 75 1011.1
20260508034511 2 270 1.6 8.0 0.00 0.00 0.00 79 1011.1
20260508033021 2 297 0.0 3.2 0.00 0.00 0.00 80 1011.1
20260508031529 2 297 0.0 1.6 0.00 0.00 0.00 76 1011.0